Powrót do katalogu

BREEZE-M R/B

AktywnyMEO
NORAD 39488·ROCKET BODY·🇷🇺 Russia

Wystrzelony Dec 26, 2013 z Baikonur Cosmodrome

Loading…

Następne Przeloty (najbliższe 24 godziny)

TLE

ŚwieżeSource: Space-Track

Epoka: Sep 14, 2026, 07:42 UTC

1 39488U 13077B   26257.32136435 -.00000197  00000-0  00000-0 0  9997
2 39488  10.8336  58.3020 0562876 184.8133 174.7534  0.89565692 41472

Śledź BREEZE-M R/B w czasie rzeczywistym z AllMySat

Download on the App Store